Vertical_Velocity
-4 -2 -3 -1 -0 -1 -0 1 0 -2 0 -2 -1 -2 -3 -2 -2 0 4 -1 1 -0 -12 1 5 2 -4 1 1 -4 -8 1 -2 -3 -1 -1 -1 -1 -0 0 1 -0 -2 -0 -1 -1 -4 -0 -2 -2 -7 3 -0 2
-3 -3 -1 -1 -1 -1 -2 -2 0 0 3 1 -2 -2 -3 -6 -3 -0 -3 1 -2 0 -16 8 -12 4 5 -2 9 -2 3 -1 3 0 -2 -0 -1 -2 -0 -2 -3 -3 -3 -2 -6 -6 -1 1 0 2 1 -1 1 -0
-5 -0 2 -3 -2 0 -1 0 -1 -0 4 -1 -4 0 -4 0 -2 2 -7 5 -2 4 -14 -2 -3 4 5 2 7 -4 0 4 0 7 2 -0 0 -2 -1 -2 -0 -2 0 -1 -3 -1 1 1 1 1 1 -0 0 0
-3 -1 -1 -3 1 -2 -1 2 -2 -1 0 1 -3 -1 -6 0 -3 -2 -0 5 5 4 5 -8 -2 -7 9 9 3 -3 4 -3 4 -3 2 0 1 -0 -1 -2 -1 -4 -1 -1 -1 -1 0 0 1 1 -1 -1 -1 -0
1 -3 -2 -3 -2 1 2 1 -3 -1 -3 -0 -2 -1 -5 -1 -6 2 -0 3 4 -2 1 -7 -3 -1 4 -2 2 5 5 5 -1 -3 1 -1 -1 -1 -1 -1 -0 -2 -4 -3 -5 -2 -1 -1 -0 1 1 1 1 -0
-2 -1 -4 -1 -1 4 1 -1 -3 -2 1 2 -0 -2 -1 -1 0 -3 -2 -4 -7 7 9 -1 3 -8 1 4 -0 1 3 5 -3 2 -2 -1 -1 0 -0 -0 -4 0 0 2 -5 -1 -0 -0 0 0 -1 -2 -2 -1
1 -2 -2 -1 2 5 -0 -1 -4 2 3 -1 -2 -0 0 -2 -1 -6 -3 -8 4 3 3 -4 -5 -1 0 3 1 -1 2 0 -3 -3 0 -1 -1 -3 1 -0 -2 0 2 2 4 0 0 -0 -1 -1 0 0 -0 -1
1 -3 -1 4 2 2 -1 1 -7 2 2 -1 -4 -2 -1 2 -1 -8 -4 1 7 1 1 -0 -5 -4 -4 -2 1 3 -0 1 3 -1 1 0 -2 1 1 -3 -0 -0 0 1 2 1 1 3 1 -0 -1 -0 -0 -0
0 1 1 -0 3 -2 1 -2 -4 4 -1 -3 -3 -1 1 -4 -4 1 -3 2 5 7 -1 0 2 -2 2 1 -1 5 3 2 -0 0 -1 1 -1 -2 -5 -1 -0 1 -0 -0 -0 -1 -0 -1 -1 -0 2 0 0 -0
1 4 0 1 0 -1 0 -0 -7 2 -2 -3 -4 -1 -1 -4 1 -7 1 0 -1 -1 -0 -0 -1 -2 1 0 -3 3 1 -1 1 -4 2 2 -3 -1 1 -1 2 0 0 1 1 1 0 -1 -1 -1 -0 1 1 0
-1 0 7 0 1 2 0 -8 -6 2 -3 -3 -4 -3 1 -1 -5 -3 0 0 -0 -1 2 -2 -0 0 -0 2 -1 2 -0 -1 1 -4 1 -1 -2 -0 1 1 0 1 0 -0 -0 0 -1 2 -1 -0 -0 0 0 1
-3 8 1 -3 2 0 -1 -6 -4 -2 -4 -0 -3 -2 -5 -2 -2 1 -1 0 -0 -3 -0 2 -1 2 -4 3 4 -4 1 1 -1 -0 1 -0 -2 1 1 1 2 1 1 -0 0 -0 -0 -1 -1 -0 -0 -1 -1 0
4 3 -5 1 2 -2 -2 -6 -3 -1 -1 -2 -4 -6 -7 0 -3 -3 -1 -6 -3 0 -0 -3 -6 1 -4 7 1 2 2 -1 -1 1 -2 -3 0 -0 -0 -0 -1 -1 -2 -3 -2 -1 -1 -0 0 0 0 1 0 0
5 2 1 4 -1 -4 -2 -6 -3 -2 -2 -2 -3 -6 -5 -2 -1 -1 -1 0 -3 -1 1 0 -1 3 0 3 -1 3 -1 -1 1 1 -4 -1 -2 1 1 0 -1 -1 -0 -1 -1 0 -0 -1 -1 0 0 -0 -0 -0
1 5 -1 -1 1 -1 -2 -0 -5 -4 -2 -2 -2 -4 -1 -2 0 0 -2 -2 -3 -0 2 -4 2 6 -1 2 0 1 3 0 -1 -1 1 0 -0 0 0 0 -1 0 0 1 1 1 0 -0 -1 -1 0 0 -0 -0
3 3 -1 -2 1 -1 -0 0 -1 -4 -1 -2 -0 1 -1 1 -2 -0 -1 -2 3 -1 1 3 0 2 -1 1 2 -1 1 -1 1 0 0 0 1 1 1 1 -1 -0 1 1 -0 -1 -1 -0 -1 0 1 -1 -1 -0
3 -6 -3 -0 -2 -3 -0 -3 -1 -3 -1 -2 -2 -1 -0 1 -3 -1 -0 -1 1 -2 -0 1 2 0 0 1 0 1 2 2 1 -0 0 0 2 1 0 2 1 -1 1 -0 -0 -0 -0 -0 -0 1 1 -0 -0 0
-4 -1 4 -0 1 1 -2 -2 -1 -2 -2 -1 -0 -1 1 0 -1 1 -0 1 1 -0 1 0 2 1 1 1 1 2 -0 0 2 1 0 -0 1 3 2 2 2 -2 1 0 -0 -1 -0 0 0 -1 -1 -1 -1 0
-3 1 -4 -4 -1 -6 -1 0 1 -1 -3 -1 -2 1 2 -3 -2 2 -0 2 -5 1 -0 1 3 -0 -1 0 -0 -1 0 2 -1 -1 1 1 1 2 1 2 -3 2 1 1 -0 -0 0 0 0 0 0 -0 -2 -2
0 -3 -3 -0 1 -5 1 -3 -1 1 -2 1 1 -0 -2 -1 0 3 1 -0 -3 2 3 1 -2 -1 0 1 2 1 3 3 -0 -2 -1 3 1 0 1 -1 2 1 1 0 0 0 -0 -1 -1 -1 -1 0 0 -1
-0 1 -1 -3 2 -1 -3 -1 -0 0 -1 -0 1 0 1 0 -0 2 0 0 -0 -1 -1 -4 -6 -2 3 1 1 -0 1 1 1 1 -1 -4 -1 1 2 -1 -4 0 0 0 0 -1 0 0 -0 0 0 -0 -1 -1
-2 0 -1 -2 -7 -1 2 2 0 1 -0 -1 1 0 -1 0 -0 -0 -0 2 -2 -4 -2 -1 -1 -1 -1 0 -2 -0 -0 1 1 0 1 0 -1 0 0 2 1 1 0 0 1 1 -1 -0 -0 -0 -0 -0 -1 -0
1 -1 -5 -0 -3 3 2 -2 -0 0 -1 -0 0 -1 -0 -1 1 -1 -0 -0 -2 -2 -1 -2 -1 -1 -1 1 -1 -2 -0 0 1 1 -1 -1 1 2 1 -1 -1 -1 -1 0 1 1 1 -1 -1 -0 -0 -0 -0 1
-9 -1 0 -1 0 -1 -1 0 2 0 -0 -0 -0 -1 -1 -0 0 1 -2 -1 -1 -3 -3 -2 -2 -0 3 3 1 1 0 -0 1 1 0 -0 1 2 1 0 0 -0 0 1 0 -0 -1 -1 -0 -0 -0 0 0 -2
0 2 -5 -0 0 1 1 -1 -1 -1 -0 -1 0 -1 -2 0 -1 -0 -2 -4 -2 -4 -3 -2 -1 0 -1 1 0 -1 -0 1 -0 -0 -1 -0 0 1 2 0 -1 -1 -0 -0 -1 -1 -0 -1 -0 -0 0 -0 -2 -1
-3 -1 -3 -2 -0 -2 -3 -0 -0 -2 -0 0 -2 1 -0 -1 -1 -4 -4 -3 -5 -4 -4 -3 -1 0 2 0 -1 -1 0 -1 -0 1 -1 -1 -1 0 -1 -2 -2 -1 -0 0 0 0 -0 -0 0 -0 1 0 0 -1
0 -3 -1 -0 2 0 0 1 1 -0 -0 -1 -1 0 -1 -0 -3 -9 -2 -3 -0 -1 -1 -2 -1 -1 -0 1 1 0 -1 -0 -0 -0 0 -1 -2 -2 -2 -2 -1 -1 -1 -1 -1 -1 -1 0 0 0 -0 1 1 -0
-4 1 -4 -0 1 1 -1 0 -0 -1 -2 1 1 -2 -2 -6 -8 -0 0 -0 1 -1 -3 -3 -1 1 1 0 -1 1 -0 -0 1 0 -0 -1 -1 -1 -1 -2 0 -1 -2 -1 -0 -1 -0 0 1 1 -0 -1 -0 2
-1 -0 1 0 0 1 -2 -3 -3 -2 -0 -1 -2 -1 -4 -2 -0 2 -1 -2 0 -0 -3 -4 -3 4 3 3 2 2 -1 -1 -1 -2 -2 -2 1 1 1 -0 -0 -1 -1 -1 -2 -1 0 1 -0 -2 -1 -2 -1 -0
-2 2 0 1 -0 -2 -7 -1 -3 -0 1 -0 0 -2 -3 -10 -9 2 1 1 -0 -5 -4 0 -2 -3 -2 2 -0 3 2 -0 -1 -1 -3 -2 1 0 0 1 -0 -1 -0 0 1 1 1 -1 -0 -0 -0 -0 -1 -1
1 2 1 1 -2 -2 -1 0 -2 0 1 -4 0 0 -10 -9 -20 -9 -6 -3 -3 1 2 -6 -7 1 2 2 3 -2 -5 -0 -1 -0 1 1 2 1 0 -0 0 1 1 -0 -0 0 -1 -1 -0 -1 -1 -1 -1 0
1 -0 -0 -0 -3 -1 0 -1 -1 -0 1 1 -4 3 -0 1 -6 -10 -14 -0 -0 -7 -8 1 0 -4 6 1 1 1 -0 -1 -0 2 -1 1 3 1 -1 0 1 1 -0 -1 -1 -1 -1 -1 -1 -1 -0 -0 0 -0
0 1 1 -1 -1 -1 1 -0 1 -1 1 -1 -4 1 3 2 -7 -7 -1 -5 -5 -2 -1 3 3 1 -1 -1 0 -1 -1 -1 0 0 0 1 -1 -1 0 1 -2 -1 -1 -1 -1 -1 -1 -1 -0 -1 -1 1 0 -0
Height
1490 1494 1497 1500 1502 1503 1503 1502 1501 1500 1499 1498 1497 1495 1494 1494 1492 1490 1491 1489 1488 1484 1475 1470 1469 1469 1468 1472 1471 1461 1455 1447 1444 1443 1445 1445 1441 1441 1437 1436 1433 1436 1441 1443 1439 1441 1444 1428 1430 1432 1432 1429 1430 1433
1485 1490 1494 1496 1498 1500 1501 1500 1499 1498 1497 1497 1496 1495 1493 1492 1491 1489 1488 1488 1484 1482 1473 1470 1467 1465 1464 1463 1468 1466 1459 1458 1448 1447 1446 1447 1443 1444 1445 1441 1436 1437 1437 1437 1438 1436 1430 1429 1430 1430 1431 1432 1433 1433
1480 1486 1489 1493 1495 1497 1498 1498 1497 1496 1496 1496 1494 1493 1492 1491 1490 1490 1486 1482 1481 1476 1468 1464 1464 1465 1464 1461 1462 1465 1459 1456 1453 1454 1450 1448 1446 1445 1445 1439 1437 1435 1433 1435 1434 1431 1430 1431 1432 1432 1432 1432 1434 1435
1476 1482 1486 1490 1493 1494 1495 1495 1494 1494 1494 1494 1492 1490 1490 1488 1486 1485 1483 1482 1479 1479 1475 1464 1461 1462 1461 1460 1458 1459 1460 1458 1456 1455 1449 1448 1447 1442 1442 1440 1439 1435 1433 1433 1434 1433 1432 1433 1433 1434 1434 1435 1435 1435
1471 1478 1483 1487 1490 1491 1492 1492 1492 1492 1492 1491 1490 1488 1486 1485 1484 1482 1481 1481 1480 1482 1474 1462 1454 1452 1455 1453 1454 1454 1456 1459 1459 1458 1450 1446 1444 1443 1440 1440 1439 1431 1431 1434 1435 1431 1432 1432 1434 1434 1435 1435 1436 1436
1467 1474 1479 1484 1488 1489 1490 1490 1489 1489 1489 1488 1486 1484 1483 1482 1480 1479 1480 1483 1480 1477 1471 1465 1460 1452 1453 1450 1446 1449 1453 1457 1459 1457 1450 1445 1443 1443 1445 1442 1429 1428 1428 1428 1429 1430 1431 1432 1433 1434 1434 1435 1435 1436
1464 1470 1476 1481 1484 1486 1486 1487 1487 1487 1486 1485 1484 1482 1480 1477 1476 1478 1480 1478 1476 1474 1472 1465 1459 1455 1452 1450 1448 1448 1451 1454 1455 1454 1449 1445 1442 1443 1441 1441 1428 1428 1428 1429 1430 1430 1432 1432 1433 1434 1434 1435 1435 1435
1461 1467 1474 1478 1481 1482 1483 1484 1484 1484 1483 1482 1481 1478 1475 1475 1476 1478 1477 1476 1473 1472 1469 1469 1464 1457 1455 1452 1450 1450 1450 1452 1449 1447 1445 1442 1441 1439 1434 1429 1428 1429 1429 1429 1430 1430 1430 1431 1432 1433 1433 1434 1434 1434
1460 1465 1470 1475 1478 1478 1480 1480 1481 1480 1480 1479 1477 1475 1475 1476 1477 1479 1477 1474 1474 1476 1470 1471 1469 1465 1456 1454 1449 1448 1446 1447 1446 1443 1441 1442 1439 1435 1426 1426 1427 1428 1429 1430 1430 1431 1431 1431 1432 1432 1432 1432 1431 1431
1458 1464 1468 1472 1473 1475 1476 1477 1478 1478 1477 1475 1474 1475 1475 1477 1475 1477 1474 1474 1472 1470 1471 1471 1466 1466 1459 1454 1449 1444 1442 1441 1439 1437 1437 1435 1429 1424 1424 1424 1425 1426 1428 1429 1430 1430 1430 1430 1431 1431 1431 1431 1430 1429
1457 1462 1466 1468 1470 1472 1472 1474 1476 1477 1476 1474 1473 1474 1476 1475 1476 1476 1477 1474 1473 1469 1462 1463 1464 1463 1459 1452 1449 1443 1436 1436 1434 1435 1433 1432 1428 1423 1424 1425 1426 1426 1427 1428 1428 1428 1428 1428 1429 1429 1429 1428 1427 1426
1456 1460 1462 1466 1468 1469 1470 1472 1476 1475 1473 1473 1473 1473 1475 1475 1477 1477 1477 1473 1469 1472 1468 1467 1464 1462 1456 1451 1447 1440 1435 1434 1431 1432 1433 1428 1423 1423 1424 1425 1425 1426 1426 1427 1427 1427 1427 1427 1427 1427 1426 1425 1424 1423
1455 1457 1461 1463 1465 1467 1469 1472 1474 1474 1472 1470 1471 1474 1476 1479 1481 1482 1481 1479 1475 1466 1465 1464 1464 1456 1452 1448 1443 1437 1432 1431 1430 1430 1426 1421 1422 1423 1425 1425 1426 1426 1426 1426 1426 1426 1426 1426 1426 1425 1424 1423 1421 1420
1453 1456 1458 1460 1462 1466 1468 1471 1474 1473 1472 1471 1473 1478 1478 1484 1476 1474 1476 1476 1473 1468 1465 1464 1459 1457 1447 1444 1436 1431 1429 1430 1429 1428 1423 1423 1422 1423 1424 1425 1426 1427 1427 1427 1427 1427 1427 1426 1425 1424 1423 1422 1421 1419
1450 1453 1456 1459 1462 1464 1467 1470 1472 1472 1472 1474 1475 1478 1479 1473 1472 1470 1471 1473 1471 1468 1465 1464 1455 1453 1445 1439 1431 1428 1427 1425 1423 1420 1421 1421 1421 1422 1423 1424 1426 1427 1428 1428 1427 1427 1426 1425 1425 1424 1422 1421 1419 1418
1448 1451 1453 1457 1460 1463 1466 1469 1470 1471 1471 1473 1474 1474 1472 1471 1467 1465 1468 1469 1468 1466 1459 1458 1454 1446 1435 1431 1424 1421 1422 1423 1423 1424 1423 1421 1420 1421 1422 1424 1425 1427 1427 1427 1427 1426 1426 1425 1424 1423 1422 1420 1419 1417
1446 1449 1453 1455 1459 1462 1465 1468 1468 1469 1469 1471 1471 1469 1471 1469 1466 1463 1463 1466 1466 1464 1463 1458 1453 1441 1439 1429 1422 1421 1423 1427 1426 1424 1421 1420 1419 1420 1421 1424 1425 1426 1427 1427 1426 1426 1425 1424 1423 1422 1421 1420 1418 1417
1445 1449 1451 1455 1459 1461 1464 1466 1467 1465 1467 1466 1467 1465 1464 1464 1463 1463 1462 1463 1464 1465 1463 1460 1456 1450 1440 1428 1427 1432 1430 1428 1426 1424 1421 1420 1419 1420 1422 1424 1424 1426 1426 1426 1426 1425 1424 1423 1422 1420 1419 1418 1417 1416
1446 1449 1452 1456 1458 1461 1464 1465 1465 1464 1464 1464 1463 1463 1460 1456 1457 1458 1458 1458 1459 1462 1459 1458 1455 1446 1437 1436 1435 1433 1431 1429 1426 1424 1422 1421 1421 1421 1422 1423 1424 1425 1426 1425 1425 1424 1423 1422 1420 1419 1418 1417 1415 1414
1448 1451 1454 1457 1458 1461 1461 1464 1466 1462 1460 1461 1461 1458 1455 1454 1454 1454 1454 1454 1457 1457 1456 1453 1446 1439 1437 1436 1434 1432 1429 1427 1425 1423 1422 1421 1420 1420 1421 1423 1424 1424 1424 1424 1423 1423 1422 1421 1419 1418 1417 1415 1414 1412
1449 1452 1454 1457 1459 1461 1461 1462 1461 1459 1457 1459 1456 1453 1451 1450 1452 1452 1449 1451 1452 1451 1446 1441 1438 1436 1435 1433 1430 1427 1425 1424 1423 1422 1421 1420 1420 1419 1420 1420 1421 1422 1422 1422 1422 1421 1420 1419 1418 1416 1415 1413 1412 1410
1448 1451 1453 1455 1459 1461 1459 1458 1458 1457 1458 1455 1454 1451 1449 1449 1449 1448 1449 1446 1442 1437 1437 1436 1434 1433 1430 1427 1423 1421 1419 1419 1418 1418 1418 1418 1418 1417 1417 1418 1419 1419 1420 1420 1419 1419 1418 1417 1416 1414 1413 1411 1410 1408
1449 1451 1453 1454 1458 1457 1456 1456 1458 1457 1455 1453 1452 1450 1447 1447 1447 1449 1446 1439 1433 1433 1434 1433 1432 1430 1427 1423 1419 1417 1415 1414 1413 1413 1414 1415 1415 1415 1415 1416 1417 1417 1417 1417 1417 1416 1415 1414 1413 1411 1410 1408 1406 1404
1449 1453 1449 1449 1452 1454 1456 1455 1454 1452 1452 1452 1452 1451 1446 1445 1446 1445 1444 1432 1428 1430 1431 1431 1430 1428 1425 1422 1418 1415 1413 1411 1410 1410 1411 1412 1413 1414 1414 1415 1415 1415 1415 1415 1414 1414 1413 1411 1410 1408 1406 1404 1403 1400
1447 1448 1448 1449 1451 1454 1454 1452 1450 1451 1453 1449 1451 1445 1443 1445 1447 1447 1438 1425 1424 1426 1428 1428 1427 1425 1422 1420 1418 1415 1412 1411 1409 1409 1409 1410 1411 1412 1412 1413 1413 1413 1413 1412 1411 1410 1409 1408 1406 1405 1402 1400 1397 1394
1446 1445 1446 1445 1448 1450 1448 1451 1451 1450 1447 1447 1443 1441 1443 1445 1446 1438 1425 1416 1418 1421 1423 1424 1423 1422 1421 1419 1416 1414 1413 1411 1410 1409 1408 1409 1409 1409 1410 1410 1411 1411 1410 1409 1408 1407 1406 1404 1402 1400 1398 1395 1392 1389
1443 1440 1440 1442 1443 1443 1445 1443 1443 1443 1445 1444 1439 1441 1442 1445 1439 1421 1415 1414 1415 1418 1420 1420 1420 1419 1418 1416 1415 1414 1412 1410 1409 1408 1408 1407 1408 1407 1408 1408 1408 1409 1408 1406 1405 1403 1402 1400 1397 1395 1392 1390 1387 1384
1435 1434 1435 1436 1438 1440 1439 1439 1441 1439 1433 1431 1433 1437 1434 1430 1422 1414 1413 1413 1415 1416 1417 1417 1416 1415 1414 1413 1411 1410 1409 1408 1407 1406 1405 1405 1405 1405 1405 1405 1405 1405 1404 1402 1401 1399 1397 1394 1392 1389 1387 1385 1383 1381
1430 1430 1433 1434 1436 1436 1434 1433 1430 1426 1425 1425 1426 1424 1419 1416 1414 1414 1414 1415 1414 1413 1413 1412 1412 1411 1408 1407 1406 1405 1403 1402 1402 1401 1401 1401 1401 1402 1402 1402 1402 1401 1400 1399 1396 1394 1392 1389 1387 1385 1383 1382 1380 1378
1426 1427 1429 1430 1431 1429 1423 1424 1422 1421 1420 1420 1419 1417 1414 1411 1411 1410 1408 1408 1408 1407 1406 1405 1404 1402 1401 1400 1399 1399 1397 1396 1395 1395 1394 1395 1396 1397 1397 1397 1397 1397 1396 1394 1392 1389 1387 1386 1384 1383 1381 1379 1377 1375
1421 1423 1424 1424 1422 1418 1418 1419 1418 1417 1415 1413 1412 1410 1405 1403 1398 1396 1395 1395 1395 1394 1394 1393 1393 1393 1392 1392 1391 1389 1389 1389 1388 1387 1387 1388 1389 1391 1392 1393 1393 1393 1391 1390 1388 1386 1385 1384 1382 1381 1379 1378 1375 1373
1419 1420 1420 1421 1416 1415 1414 1413 1411 1409 1406 1404 1401 1399 1396 1394 1388 1383 1381 1382 1382 1382 1382 1382 1382 1383 1384 1383 1382 1382 1381 1381 1381 1381 1381 1382 1384 1385 1387 1389 1389 1389 1388 1386 1385 1384 1383 1382 1381 1381 1379 1378 1376 1374
1417 1417 1417 1417 1414 1410 1409 1409 1406 1402 1399 1394 1390 1389 1387 1387 1382 1374 1372 1372 1373 1373 1374 1374 1374 1374 1374 1374 1374 1374 1374 1374 1374 1375 1375 1377 1379 1381 1383 1385 1385 1385 1385 1384 1384 1383 1383 1383 1383 1382 1381 1379 1377 1376